Theta_e
337 336 336 336 333 332 333 335 336 336 335 335 335 335 333 337 344 347 347 344 337 334 335 334 333 333 332 332 331 330 331 330 331 331 331 331 331 331 331 331 331 331 331 331 331 331 332 332 332 331 331 330 330 330 327 323 319 319 321 321 319 319 318 318 317 317 317 317 317 317 317 317 317 317
337 336 336 335 334 333 334 334 335 335 335 335 333 334 334 335 338 340 343 344 338 334 335 334 333 334 333 333 331 331 331 331 331 332 331 331 331 331 332 332 332 331 331 332 331 332 332 332 333 332 332 331 330 329 327 324 321 318 319 320 320 319 319 319 318 318 317 317 317 317 317 317 317 317
337 337 337 337 336 336 336 336 336 336 336 337 335 335 335 336 337 336 338 341 338 335 335 335 335 335 335 335 334 333 333 332 332 332 332 331 331 331 332 331 331 331 331 332 331 331 331 332 334 334 333 332 331 330 328 327 326 322 319 319 319 319 319 319 319 318 318 317 317 317 317 317 317 317
336 337 338 338 336 337 338 337 337 337 336 337 336 336 337 337 338 337 337 339 338 336 336 336 336 336 337 336 335 334 334 333 333 332 332 332 331 331 331 331 331 330 330 331 331 331 331 332 332 333 333 332 331 331 329 328 328 327 325 323 321 319 318 317 318 318 318 318 318 317 317 317 317 317
336 337 338 338 337 338 338 337 337 336 336 337 337 337 337 337 338 338 338 338 337 337 337 336 336 336 336 335 335 334 334 334 334 333 333 333 332 332 332 332 332 331 330 330 330 331 331 332 332 332 332 332 331 331 330 329 329 328 327 326 325 323 321 319 317 317 317 317 318 318 318 317 317 317
336 337 338 337 337 338 338 337 337 336 335 336 337 337 337 337 337 337 338 337 338 338 337 337 336 336 335 335 335 335 335 335 334 334 333 333 333 332 332 332 332 332 331 331 331 331 331 331 332 332 331 331 331 330 329 329 328 327 325 325 325 325 324 323 322 320 319 319 318 318 318 318 317 317
338 337 337 336 337 338 338 337 337 337 336 337 338 337 337 337 337 336 336 337 338 338 337 337 336 335 335 335 335 335 335 335 335 335 334 334 334 333 333 333 333 333 332 332 332 332 331 331 331 330 330 330 329 329 328 328 327 326 325 325 325 325 325 325 324 324 323 322 321 321 320 319 318 318
339 337 336 337 338 338 338 337 336 337 337 337 338 338 337 336 336 335 335 336 337 337 337 336 335 335 335 335 335 334 334 334 334 334 333 333 333 334 334 334 333 333 333 333 333 332 332 331 330 330 329 329 329 329 328 328 328 327 327 327 326 326 326 326 325 325 325 324 324 323 322 322 321 321
338 337 337 339 339 338 338 338 337 338 338 338 338 338 337 336 336 335 335 336 336 336 335 335 334 335 335 335 334 333 333 333 333 332 331 331 331 332 333 333 333 333 333 332 332 332 331 331 330 330 329 329 329 329 329 328 328 328 328 328 328 327 327 326 326 326 325 324 324 324 324 324 323 323
337 336 338 339 339 338 338 338 338 338 339 338 337 337 337 336 336 336 336 336 336 335 335 335 335 335 335 335 334 333 332 332 332 331 331 331 331 332 332 332 332 332 331 331 331 330 330 330 330 329 329 330 329 329 329 328 328 329 328 328 328 328 327 327 327 326 325 325 325 325 325 324 324 324
334 333 337 339 339 338 338 338 338 338 338 338 337 337 337 336 336 335 336 336 336 335 335 335 335 335 334 334 333 332 331 332 332 332 332 332 332 332 332 331 330 330 330 330 330 329 330 329 329 329 329 329 329 328 328 329 329 329 328 328 328 328 328 327 327 327 327 326 326 325 325 324 324 324
335 334 337 339 339 339 339 338 338 338 338 337 336 336 336 335 335 335 335 336 336 335 335 334 334 334 334 334 333 332 331 331 331 331 332 333 333 332 332 331 330 330 330 329 329 328 328 327 327 328 328 328 328 328 329 328 328 328 328 328 327 327 326 326 326 328 327 327 327 326 325 325 325 325
338 338 339 340 339 340 339 338 338 338 337 336 336 336 335 335 335 335 335 336 336 335 334 333 333 333 333 333 332 331 330 330 330 330 331 332 332 331 331 330 330 329 329 329 328 328 328 328 328 329 328 329 328 328 328 327 327 326 326 325 324 324 324 325 326 326 326 325 325 324 324 325 325 325
339 339 339 339 339 339 338 338 338 338 336 335 336 336 335 335 336 335 336 336 335 334 334 333 333 333 332 332 331 330 329 329 330 330 330 330 330 329 329 329 328 327 328 329 329 328 328 328 328 327 327 326 326 325 325 324 323 323 322 322 322 322 323 323 323 323 323 322 322 322 323 324 324 324
338 338 339 339 339 339 338 338 338 337 335 335 336 336 335 335 335 336 336 335 334 334 334 334 333 332 331 330 330 329 329 329 330 330 329 329 329 329 329 329 328 327 327 328 328 326 324 323 324 323 323 322 322 321 321 320 320 320 321 321 321 322 323 323 323 323 322 322 323 322 322 322 322 323
338 338 338 339 338 338 338 337 335 335 335 336 337 336 335 335 335 335 334 333 333 334 334 334 333 332 331 330 329 329 329 330 330 330 329 328 328 329 329 329 328 326 324 324 325 323 321 320 321 321 321 320 320 320 320 320 320 321 321 321 321 322 322 322 322 322 322 322 322 320 318 318 319 320
337 338 338 338 338 338 336 333 334 336 336 337 337 336 335 335 334 333 333 333 334 335 334 334 333 331 330 330 329 329 330 330 330 329 328 328 328 328 327 326 325 322 320 321 322 322 320 320 321 321 321 320 320 320 321 321 321 322 322 322 322 322 321 321 320 320 320 319 318 317 317 318 319 320
337 338 338 338 339 338 334 331 334 337 337 336 336 335 335 334 334 334 334 335 335 333 331 331 331 330 329 330 329 329 330 330 329 329 328 327 326 325 323 322 321 319 318 320 322 322 322 321 321 321 320 320 320 321 321 321 321 321 321 321 320 318 316 316 316 316 317 317 318 319 321 321 322 321
337 338 339 339 338 337 334 333 336 338 338 338 338 336 336 336 336 337 336 334 333 331 329 329 329 329 328 328 329 329 329 329 329 328 326 324 323 322 321 321 320 320 319 320 322 322 322 321 321 320 320 319 319 319 318 318 317 316 316 314 313 313 313 314 315 317 318 320 321 322 323 323 322 321
336 337 337 336 336 336 334 334 337 338 339 341 340 339 339 339 338 337 335 332 331 330 329 329 328 328 328 329 329 329 329 327 326 325 323 322 321 321 322 322 321 321 321 321 322 322 321 321 320 318 317 316 315 315 314 314 312 312 312 312 313 314 315 317 318 319 321 322 322 322 323 322 322 321
337 337 332 331 334 334 333 334 337 337 338 339 340 340 340 339 336 334 332 330 330 330 329 329 328 328 328 328 327 327 327 326 324 323 323 322 321 321 322 321 322 322 321 322 322 321 320 319 316 314 314 313 312 312 312 311 311 312 314 315 316 317 318 319 320 321 321 322 322 322 322 321 321 321
337 335 330 329 331 332 333 336 337 337 337 338 340 340 339 336 334 333 331 331 331 330 329 328 328 328 327 327 326 325 325 323 322 323 323 322 322 322 321 321 322 322 322 323 322 319 316 315 313 312 313 312 311 312 313 313 314 315 316 317 318 319 320 320 321 321 321 321 321 321 321 321 321 321
333 328 327 330 331 331 334 337 337 337 338 339 340 339 336 333 332 332 331 331 330 329 328 328 328 327 326 324 323 323 322 322 322 323 323 323 323 323 322 322 323 323 323 322 319 315 313 313 312 313 314 314 314 314 315 315 315 316 317 318 319 320 320 321 321 321 321 321 321 321 321 320 321 321
328 326 325 329 334 336 337 337 337 338 338 339 339 338 334 330 330 330 330 329 329 328 328 327 325 323 321 321 321 322 322 323 323 322 321 321 321 322 323 322 321 320 318 316 314 313 313 313 313 314 314 315 315 315 315 315 316 317 318 319 320 320 321 321 321 321 321 321 321 320 320 320 320 321
326 326 327 330 336 339 339 338 338 338 338 339 337 334 330 327 327 327 327 327 327 326 324 322 321 320 320 320 322 323 323 322 321 320 318 318 317 318 318 318 316 315 314 312 311 313 313 314 314 315 315 315 315 315 315 316 316 317 318 320 320 321 321 321 321 321 320 320 320 320 320 320 321 321
328 330 333 335 338 339 339 338 339 338 338 337 333 330 328 327 326 326 325 324 323 322 321 320 319 319 320 321 322 322 322 320 319 318 318 317 316 315 314 313 313 313 312 311 311 313 314 315 315 315 316 315 315 315 316 316 317 318 319 321 321 321 321 321 321 321 320 319 319 320 320 321 321 321
332 336 339 339 339 339 339 339 338 337 336 334 331 329 329 328 326 324 322 321 321 320 320 319 319 319 320 321 322 321 320 318 317 317 316 315 314 313 312 311 311 312 312 312 311 312 313 314 313 313 314 314 314 315 316 317 318 319 320 321 321 321 321 321 321 320 319 319 319 320 320 320 320 320
336 339 340 340 340 340 339 338 337 336 334 332 331 330 328 326 324 322 320 320 320 319 318 318 319 320 322 322 321 319 318 317 317 316 315 313 312 311 311 311 311 311 312 311 310 309 310 310 311 311 312 313 314 316 317 318 320 320 321 321 321 321 321 322 321 320 319 319 319 319 320 320 320 320
339 340 340 339 339 338 337 336 335 334 332 331 329 328 326 324 322 320 319 319 318 318 317 318 320 322 322 321 319 318 317 317 316 314 312 312 311 310 310 310 310 310 310 309 309 309 309 310 310 311 312 313 315 317 318 320 321 321 320 321 321 321 322 321 321 320 319 319 319 319 320 320 319 319
338 339 339 337 337 335 334 334 333 331 329 327 326 325 323 321 320 319 318 317 317 316 317 319 321 322 321 320 318 316 316 315 313 312 312 311 310 309 309 310 309 309 309 308 309 310 310 310 311 312 313 315 316 319 320 321 321 320 320 321 321 322 321 321 320 319 319 319 319 319 319 318 318 318
337 336 336 335 334 332 331 330 328 327 326 324 323 322 320 320 320 319 318 316 316 317 318 319 320 321 320 318 316 315 314 313 312 311 310 310 309 309 309 309 308 308 308 309 309 310 310 310 309 310 312 314 317 320 321 320 320 320 320 321 321 321 321 320 319 319 319 318 318 318 318 317 317 317
334 333 332 331 330 329 328 327 326 325 324 323 321 320 320 319 319 319 318 318 318 318 319 319 320 320 319 316 314 313 312 311 311 310 309 309 309 308 307 308 309 309 309 309 310 309 309 308 308 309 310 312 316 319 320 319 319 319 319 320 320 320 320 319 319 319 318 318 318 317 317 316 316 317
333 331 330 329 328 328 327 326 325 324 323 322 321 320 320 320 319 319 318 318 319 319 320 321 321 319 316 314 313 312 311 310 309 308 308 308 308 307 308 309 309 310 310 310 310 308 308 308 308 309 309 310 313 318 320 319 318 318 318 319 319 319 319 318 318 318 318 317 317 316 316 316 316 317
331 329 329 329 328 327 326 325 325 324 323 322 322 322 321 321 321 320 320 320 320 320 320 320 318 315 313 312 312 311 310 308 308 308 308 307 307 308 309 309 309 310 310 310 309 308 308 308 308 309 310 311 315 317 318 318 318 317 317 318 318 318 318 318 318 318 317 317 316 316 316 316 316 316
330 329 329 329 328 328 327 327 326 326 325 325 324 324 324 324 323 323 322 320 319 317 316 315 314 313 312 312 311 309 308 308 308 307 307 307 307 308 308 309 309 310 309 309 308 308 308 308 308 309 311 314 317 317 316 316 317 317 317 318 318 318 318 318 318 317 316 316 315 315 315 315 316 316
329 329 329 329 329 327 327 327 326 326 325 324 323 323 323 323 323 323 321 317 315 314 314 313 313 312 311 310 308 307 307 307 307 306 307 307 308 308 308 308 309 308 308 308 308 308 308 309 309 310 313 317 318 316 315 315 316 317 317 318 318 318 318 318 317 316 315 314 314 314 315 315 315 315
328 329 330 329 327 326 325 324 323 322 321 320 319 319 319 319 319 318 317 315 314 313 313 312 311 310 308 307 306 306 306 306 306 307 308 307 307 307 307 308 307 307 308 308 308 308 309 309 308 310 315 318 318 316 315 315 316 317 318 318 318 318 318 317 316 314 313 313 313 313 314 315 315 314
329 329 329 327 325 323 322 321 320 320 319 319 318 317 316 316 315 314 314 313 312 312 311 310 310 309 308 308 307 306 306 306 307 307 307 307 307 307 307 306 306 307 308 308 308 308 308 308 308 310 314 316 317 316 315 315 316 318 318 318 318 318 316 315 314 313 312 312 312 312 313 313 313 313
328 328 327 324 322 321 320 320 319 318 318 317 317 316 315 314 314 313 312 312 312 311 311 310 308 307 307 306 307 306 307 307 307 306 306 306 306 306 305 306 306 308 308 308 308 308 307 308 309 310 311 313 314 313 314 316 318 318 317 317 317 316 315 313 312 312 311 311 311 311 311 311 311 311
328 327 325 322 321 320 319 319 318 318 317 316 315 315 314 313 313 312 311 311 311 311 310 309 307 306 306 306 306 306 307 306 306 305 305 305 305 305 305 306 307 308 308 308 307 307 308 308 308 308 308 309 310 311 314 317 318 317 317 316 315 314 313 311 311 311 310 310 310 310 311 310 309 310
326 325 323 321 320 319 319 318 318 318 317 316 315 314 313 313 312 312 311 310 310 310 310 309 308 308 308 307 306 306 306 305 305 305 305 305 305 305 305 306 307 307 308 307 307 307 308 307 306 306 307 308 310 313 317 318 317 316 316 315 313 311 310 309 309 309 309 308 309 309 309 309 309 310
322 322 321 320 320 319 318 318 318 317 316 316 315 314 313 312 312 311 310 309 309 309 309 309 309 308 308 307 306 305 305 304 304 304 304 304 305 305 306 306 307 307 307 307 307 307 307 306 306 306 307 308 312 316 318 317 316 316 315 314 312 310 309 308 308 307 307 307 308 308 308 308 308 309
321 321 320 320 320 319 318 317 317 316 316 315 314 313 312 312 311 310 308 308 308 308 307 308 308 308 306 305 305 305 304 304 303 304 304 305 305 305 305 306 307 307 306 306 307 307 306 306 306 306 307 310 314 316 316 316 316 315 314 312 311 309 308 308 308 306 306 306 306 306 306 307 307 308
321 320 320 319 319 318 317 317 316 316 315 314 312 311 311 310 309 308 307 306 306 307 307 306 306 306 305 305 305 304 304 304 304 304 305 305 305 305 306 306 307 306 305 306 306 306 306 306 306 306 308 313 315 315 315 315 315 314 313 311 310 308 308 308 307 306 305 305 305 305 306 307 308 308
320 319 319 318 317 317 316 316 316 315 314 313 312 311 310 309 308 307 306 305 305 305 306 306 305 305 305 304 304 304 304 304 304 304 305 305 305 305 306 307 306 306 305 305 306 306 306 306 306 307 311 314 315 314 314 315 314 313 312 311 309 308 307 307 307 306 305 305 304 304 305 306 308 309
Wind_Speed
13 13 13 12 11 10 8 8 7 6 6 6 5 5 6 7 5 2 2 3 3 5 7 5 5 7 8 9 13 13 14 14 15 15 16 17 18 18 19 20 20 20 20 20 20 19 19 20 21 22 23 24 24 23 22 21 22 23 23 23 23 23 22 22 21 20 19 17 16 15 14 13 12 12
15 14 14 14 12 10 9 9 8 8 8 7 6 6 6 8 7 5 3 3 5 7 9 9 8 10 9 8 9 11 13 14 15 16 18 19 19 20 20 21 21 21 20 20 20 20 21 21 21 21 21 21 21 22 21 20 20 21 22 23 24 24 24 24 23 22 22 21 19 17 15 14 13 12
17 16 15 14 14 11 9 9 8 8 8 8 8 6 6 8 9 9 6 2 5 9 11 12 11 11 12 11 12 14 16 16 16 17 20 21 22 22 22 22 22 22 22 23 23 24 23 22 21 20 20 20 19 20 20 20 20 21 21 23 24 25 26 27 26 25 24 24 23 22 20 18 16 15
20 18 17 15 14 12 12 12 10 10 9 8 9 8 8 9 10 12 11 6 8 14 15 16 15 13 13 14 15 16 17 17 18 19 21 23 23 23 23 23 23 23 24 25 26 26 25 24 24 23 22 22 21 20 20 21 22 23 23 23 23 25 26 28 29 28 27 26 25 25 24 23 21 19
22 21 19 18 16 14 14 15 14 13 11 10 10 10 11 11 12 14 14 11 11 16 17 16 15 13 13 15 15 15 17 17 18 19 20 21 22 23 24 25 25 25 24 25 25 25 26 26 25 24 23 23 22 21 21 22 23 23 24 23 23 23 24 26 28 30 30 29 28 28 27 27 25 24
24 23 22 21 19 16 15 16 16 15 14 13 14 14 13 14 15 15 16 16 13 14 16 14 13 13 14 14 14 14 16 17 17 18 18 19 20 22 23 24 24 24 24 25 25 25 26 27 27 26 26 25 24 23 23 23 23 22 22 23 23 24 24 24 25 27 28 29 29 29 29 29 29 28
25 24 23 22 20 19 18 18 17 16 15 15 15 15 14 15 15 15 16 17 15 14 13 13 13 14 15 15 15 15 16 17 17 18 18 19 20 22 22 22 23 24 24 25 25 25 25 26 26 26 26 25 25 24 24 24 24 23 23 23 24 25 26 26 26 26 27 28 28 28 28 29 30 31
27 25 24 23 22 21 20 19 18 17 17 18 17 17 16 15 16 15 15 16 16 14 13 13 14 15 14 15 15 15 16 16 16 17 19 19 20 20 20 21 23 23 23 23 24 24 24 25 26 24 23 23 23 24 25 26 26 26 26 25 26 26 27 28 29 28 28 28 28 28 28 27 28 30
29 27 26 24 23 22 21 19 18 18 19 19 18 18 17 16 16 17 17 18 17 16 15 16 16 15 14 16 16 15 15 17 17 18 18 18 18 19 19 20 21 21 22 22 23 24 24 25 25 24 23 23 24 25 27 28 28 29 29 28 28 28 28 29 30 31 31 32 31 32 32 31 30 29
29 28 27 25 23 22 20 19 18 19 20 20 19 19 18 17 17 17 17 18 17 16 17 17 18 18 17 18 18 17 16 17 18 19 19 18 17 17 17 18 18 18 18 20 21 22 22 23 24 25 25 25 26 27 29 29 29 29 29 30 30 30 30 29 29 30 32 33 33 33 34 34 34 33
29 28 27 26 24 22 20 19 19 19 18 18 19 20 19 18 17 17 17 16 15 15 15 16 17 19 19 18 19 19 17 16 18 19 19 20 18 17 17 18 18 17 17 19 20 21 22 24 25 26 26 26 27 27 28 28 28 28 29 30 30 31 31 32 31 31 33 34 34 33 33 33 34 34
28 28 27 26 24 22 20 20 20 19 18 18 19 20 20 19 18 18 17 15 14 14 15 16 17 18 18 18 18 18 16 14 15 15 15 18 18 17 16 16 16 17 19 20 20 21 23 24 25 25 25 24 24 24 25 26 28 29 30 31 31 31 32 32 31 31 32 33 32 32 31 31 33 34
27 27 27 25 23 21 21 21 21 19 18 19 20 21 20 19 19 18 17 16 15 14 14 17 18 18 18 17 16 15 14 14 15 14 11 12 13 14 15 17 18 19 19 20 20 20 21 23 24 23 23 23 23 24 26 28 30 31 32 33 33 32 32 31 30 30 31 30 30 29 29 29 30 32
28 28 26 24 22 22 22 22 22 21 19 20 22 23 21 21 20 19 19 18 16 15 15 18 19 17 17 17 15 14 15 15 15 13 11 11 14 15 16 19 23 21 17 16 19 19 20 23 25 25 26 28 28 28 29 30 30 31 30 30 30 29 29 29 29 29 29 30 30 30 29 30 31 32
29 28 26 24 22 22 21 19 20 21 20 20 24 25 23 22 22 21 20 19 17 16 17 18 18 17 17 18 17 15 16 15 13 12 12 14 16 16 14 15 20 22 18 17 20 24 26 28 29 29 29 30 29 28 27 26 26 25 25 24 25 26 27 28 29 30 31 33 33 32 32 33 33 34
29 28 27 25 23 23 22 19 19 21 22 22 25 27 25 24 24 23 21 20 19 18 18 18 19 19 19 19 17 16 15 13 13 13 15 16 15 14 13 14 19 24 25 24 25 27 28 28 28 28 28 28 27 27 26 25 24 24 23 23 23 24 26 28 29 30 31 33 34 34 35 36 36 36
28 27 25 24 25 24 23 21 21 22 23 22 25 27 27 26 26 24 22 21 20 19 18 19 21 22 21 20 20 19 16 14 15 16 17 17 15 15 17 20 24 28 28 27 26 26 27 28 27 27 27 27 28 27 25 24 24 24 23 23 23 24 25 28 30 30 32 33 35 36 36 36 36 36
27 26 24 24 24 23 23 23 22 22 22 22 23 25 26 26 24 22 21 19 17 17 18 21 23 22 21 22 23 21 19 18 19 19 19 19 19 20 22 25 28 27 25 26 24 22 26 28 25 26 27 27 26 24 21 20 20 20 22 24 26 29 30 32 32 33 33 34 34 34 33 33 33 34
26 25 23 21 19 19 21 23 23 21 22 22 22 22 22 21 20 19 19 17 16 17 18 20 22 20 19 19 20 19 19 19 19 19 19 20 21 23 24 26 28 26 26 26 21 19 24 27 23 23 23 21 20 21 20 21 23 25 28 31 32 32 31 31 30 31 31 32 32 33 33 33 35 37
28 26 24 21 20 21 23 24 23 21 21 21 20 19 19 19 19 19 19 18 17 18 18 19 21 21 19 17 16 16 16 16 17 18 19 21 22 22 20 22 25 26 27 26 22 21 24 22 18 19 20 21 24 27 27 28 30 31 31 30 29 28 27 28 29 31 33 33 33 34 35 37 39 42
27 25 23 23 24 26 27 25 23 21 22 21 19 18 17 17 18 19 19 18 17 17 17 19 20 18 16 14 13 14 15 16 18 19 19 22 24 20 15 16 20 24 27 26 22 19 19 17 18 22 24 26 29 30 29 29 29 29 28 26 26 26 28 30 32 34 35 35 35 36 38 40 43 45
23 22 22 25 27 27 26 24 22 21 21 21 18 16 15 15 16 18 17 15 15 16 16 15 13 12 11 11 12 14 16 18 19 20 21 24 24 20 16 16 18 22 25 22 16 15 18 22 25 26 26 26 27 26 26 28 29 28 28 28 28 29 30 32 34 35 36 37 38 39 40 42 44 46
21 22 24 25 26 26 24 23 22 20 20 20 19 17 15 15 16 17 16 15 15 16 16 15 14 14 14 15 15 16 17 17 18 20 22 24 24 23 21 19 15 12 13 15 15 18 22 25 25 24 20 16 19 24 26 28 30 31 30 29 30 32 34 34 34 35 36 38 38 40 41 43 44 45
22 23 24 25 25 25 25 24 22 20 19 19 19 18 17 17 18 17 16 15 16 16 17 18 18 19 18 17 15 14 14 15 15 15 14 14 15 17 18 17 12 10 13 18 20 20 21 21 22 24 20 13 14 22 28 30 31 30 30 30 32 34 35 33 33 34 36 37 39 40 42 42 42 43
22 23 24 25 25 25 25 24 22 20 19 18 18 18 17 18 18 18 17 17 17 19 20 20 19 18 16 14 12 12 12 12 12 11 10 10 10 12 14 15 15 17 21 23 22 20 22 23 24 26 25 20 19 24 28 30 31 31 30 31 33 34 34 33 33 34 35 36 39 40 41 41 40 41
22 23 24 24 25 25 24 22 19 17 16 17 16 15 15 15 16 16 17 18 19 20 19 18 17 16 15 14 12 11 11 10 10 11 13 15 16 18 19 18 18 20 23 23 22 23 25 26 26 24 23 21 22 24 25 27 32 33 31 31 32 32 32 32 32 33 35 37 39 40 41 41 41 42
22 22 22 22 22 23 22 19 17 15 16 16 15 14 14 14 14 15 17 17 18 18 16 16 16 15 13 12 10 9 8 9 11 14 17 19 20 20 19 19 18 19 21 22 23 24 25 26 27 27 25 24 22 20 20 24 29 31 31 33 34 32 31 30 31 34 37 38 38 40 41 41 42 42
19 19 19 18 17 18 18 16 15 15 15 15 14 13 14 14 15 16 16 15 15 15 15 15 15 13 10 10 9 9 10 12 14 17 19 20 19 18 18 19 19 19 20 22 24 25 26 28 30 31 30 28 22 18 19 23 27 30 32 34 34 32 30 30 32 35 37 38 39 40 40 40 40 40
16 15 15 14 13 13 14 14 14 14 13 13 13 13 14 15 16 15 14 13 14 15 16 16 15 12 11 11 11 12 13 14 16 17 19 19 18 18 19 20 20 21 22 24 25 25 26 28 30 31 32 31 27 24 24 24 26 30 32 31 32 33 32 30 31 34 35 38 40 39 38 39 40 40
14 12 12 12 11 11 11 12 12 11 11 11 12 13 14 15 16 15 14 14 15 16 17 17 15 14 14 12 12 11 12 13 15 16 17 18 19 20 20 21 23 24 24 23 24 25 25 25 26 27 29 30 28 27 26 24 25 30 32 31 30 31 31 30 31 32 34 37 39 39 39 40 41 41
13 12 10 10 9 9 10 10 10 10 11 12 13 14 15 15 15 15 15 16 16 16 17 16 16 16 14 12 9 9 11 13 14 13 15 18 20 20 20 22 25 27 27 25 24 23 22 22 24 25 27 28 27 26 26 25 26 29 31 31 29 29 30 32 33 34 35 36 38 39 40 40 41 40
13 12 11 11 10 10 11 12 12 12 12 13 14 15 16 16 16 16 16 17 17 17 16 17 17 16 12 9 7 9 12 14 13 13 16 17 18 20 22 22 24 26 28 28 26 24 23 25 27 27 28 28 28 27 26 26 27 28 29 30 29 30 33 34 34 36 36 35 37 40 40 40 40 38
14 13 13 12 12 12 13 13 14 15 15 16 18 18 18 17 16 17 18 19 19 18 18 19 17 12 7 6 8 10 12 13 13 15 16 16 18 22 23 22 23 26 27 26 26 27 27 29 29 29 30 30 28 25 23 24 27 29 29 29 28 29 33 34 34 35 35 35 36 39 40 40 40 37
16 15 14 13 13 13 13 14 15 16 17 18 20 20 18 18 18 18 17 17 16 15 14 13 10 6 5 7 9 10 12 14 15 14 14 16 20 22 22 22 24 24 23 22 25 28 29 31 31 31 33 31 26 21 20 22 25 28 30 28 27 29 32 34 34 34 35 35 35 37 39 41 40 36
16 15 14 13 14 14 15 17 19 19 20 20 21 21 20 19 18 16 13 10 8 6 4 3 3 4 6 7 8 10 12 14 14 14 16 18 20 21 21 22 22 21 21 22 25 28 30 31 31 30 29 25 20 19 20 21 22 25 29 30 29 30 32 33 34 35 36 36 35 33 34 37 39 36
16 14 12 12 11 12 13 15 15 16 15 11 9 10 11 12 12 11 9 7 4 2 2 3 4 4 5 7 9 11 12 13 14 16 18 19 19 20 21 20 19 21 23 24 26 28 29 29 29 24 17 12 9 10 17 24 24 22 24 29 31 31 33 34 34 34 34 34 33 31 30 33 38 40
15 13 12 9 7 6 6 3 2 4 4 5 7 7 6 6 6 6 5 3 1 2 2 3 4 4 5 7 10 12 13 14 16 18 18 18 19 19 19 19 21 24 25 25 26 27 26 26 27 23 13 7 5 7 14 26 30 24 20 24 29 30 32 33 33 33 33 32 32 31 31 32 38 43
13 11 9 6 3 1 3 6 8 8 7 6 7 8 9 10 10 8 6 4 4 4 4 5 6 6 7 9 11 13 15 15 16 16 16 17 19 18 18 21 24 26 26 25 25 25 25 25 26 24 16 8 5 7 11 20 27 28 26 25 27 29 31 30 30 32 34 33 32 32 32 33 38 43
12 10 7 4 3 5 7 7 8 9 10 9 8 8 7 6 5 4 3 3 4 5 7 9 10 10 10 9 10 12 14 14 13 15 16 17 18 19 21 24 25 25 24 24 24 25 26 25 25 25 22 16 15 18 20 21 25 30 30 26 24 26 29 30 31 32 33 33 34 35 34 34 36 38
13 10 8 5 4 5 6 6 6 6 7 8 8 7 6 5 5 5 5 5 6 8 8 9 9 9 8 7 9 10 11 11 12 15 17 17 18 20 23 25 25 23 22 22 23 25 26 26 26 28 28 28 28 30 29 25 24 27 29 27 27 28 28 29 31 31 32 34 36 35 32 31 33 34
13 11 9 7 6 5 5 4 4 3 2 2 2 2 2 3 4 4 6 6 7 8 9 7 7 7 7 8 9 9 10 11 13 15 17 18 20 22 24 24 23 22 20 20 23 25 26 28 30 31 31 32 31 26 19 15 16 22 27 30 32 32 31 29 29 29 32 35 34 31 28 28 28 29
12 11 10 8 6 3 3 2 1 1 1 2 2 2 3 3 3 3 5 6 6 7 8 7 7 7 7 7 7 8 9 12 14 15 17 20 21 22 23 23 21 21 21 22 24 26 28 30 32 32 32 31 27 18 10 9 13 19 25 30 33 35 35 32 30 30 31 31 28 26 25 24 18 15
13 12 11 8 5 3 1 2 2 2 3 3 3 4 6 6 3 3 5 7 6 6 8 7 4 4 4 5 5 8 11 12 14 16 19 20 20 21 23 23 21 22 24 25 27 28 30 31 32 32 30 27 21 15 12 14 17 19 23 27 32 36 37 35 33 34 33 30 28 27 26 22 16 13
14 11 9 6 4 3 3 4 5 4 4 3 3 4 4 2 2 3 5 8 8 8 8 4 1 1 3 4 6 9 11 12 15 18 19 19 19 21 22 22 21 23 25 27 28 30 31 31 32 31 25 21 19 17 16 17 17 19 22 26 29 33 36 36 35 37 36 34 34 33 30 25 21 20
13 10 8 4 2 3 4 5 5 4 4 3 2 2 1 3 3 2 3 5 8 8 5 3 3 3 4 5 8 10 12 13 15 17 17 18 20 21 22 21 21 23 25 27 28 30 30 30 30 27 21 17 18 18 17 16 16 18 21 25 27 30 32 32 32 33 34 34 37 37 33 28 24 23
Wind_Direction
210 212 217 223 225 225 224 220 216 215 217 206 201 211 199 187 187 200 259 275 261 271 293 305 307 304 287 252 241 245 257 269 272 271 271 273 277 277 274 275 279 283 285 285 284 282 282 283 284 286 287 287 287 286 284 277 272 270 268 267 267 267 266 266 268 273 277 280 280 280 279 278 277 277
209 212 215 221 225 224 220 215 212 218 229 232 233 235 223 213 209 202 207 266 268 271 288 294 297 304 300 275 261 266 274 279 279 277 278 280 283 283 280 281 285 289 290 290 289 288 287 287 286 285 283 282 283 282 281 279 276 273 270 267 266 267 267 267 265 266 269 273 275 275 273 272 272 273
209 211 214 217 219 222 221 211 206 212 224 237 243 242 234 231 232 230 222 242 272 275 287 294 296 298 295 290 287 287 289 291 289 288 288 287 287 285 286 290 295 298 298 297 297 297 296 294 291 288 284 280 280 280 279 278 278 276 274 271 268 268 269 270 269 266 265 267 269 271 270 269 268 270
213 214 217 213 211 219 221 213 211 211 213 227 237 238 235 232 235 240 235 229 256 270 279 288 293 292 291 290 288 288 290 291 290 290 288 285 283 286 292 299 303 304 304 301 299 299 299 296 293 291 289 285 281 279 278 277 276 277 278 277 275 272 271 272 273 272 270 267 266 268 268 268 268 268
216 217 219 212 210 217 217 215 219 221 218 223 230 229 229 233 236 237 235 232 250 266 272 280 286 287 287 286 285 286 287 287 287 287 287 285 283 287 295 300 302 302 302 300 299 299 298 296 293 290 289 287 283 280 280 279 279 279 279 279 278 276 273 272 273 274 274 271 269 267 267 267 267 268
217 221 222 215 213 219 220 220 226 230 227 225 228 228 228 234 235 234 237 239 242 256 265 270 277 281 281 278 277 279 280 282 285 286 287 287 286 289 292 292 292 292 293 293 294 296 297 295 293 291 289 288 285 284 283 283 282 280 278 277 278 279 278 276 275 274 274 274 273 271 268 267 267 269
216 220 221 216 214 219 223 223 226 230 228 227 228 230 229 233 235 236 243 245 243 250 261 265 271 276 276 274 279 285 282 280 281 283 285 284 284 285 286 285 285 286 285 283 282 286 291 292 292 291 290 289 289 288 287 286 283 280 278 277 278 278 279 279 278 277 277 276 275 274 272 270 269 270
215 216 217 217 217 218 222 225 227 229 229 231 233 232 232 233 237 239 244 247 249 254 261 265 269 272 272 276 285 294 294 288 284 284 287 288 285 283 282 282 284 285 284 280 278 280 283 286 287 287 285 286 287 287 288 287 286 284 282 281 280 280 280 279 279 279 279 278 277 276 274 272 272 273
216 215 217 220 218 216 221 227 229 229 231 233 233 234 235 236 238 241 244 246 247 251 260 270 275 274 274 280 290 296 297 293 290 290 292 292 290 288 286 284 284 284 283 279 278 279 280 281 282 282 282 282 283 283 284 286 287 287 287 286 285 284 284 283 282 281 280 279 278 278 277 275 274 275
218 217 219 222 219 218 223 227 230 234 235 234 234 236 237 236 237 242 244 242 242 248 258 269 276 281 284 289 296 302 303 296 293 295 295 292 288 287 287 287 286 284 281 279 279 281 282 280 279 279 279 279 279 280 282 285 287 288 288 287 286 285 284 283 283 283 282 280 280 279 278 277 276 275
219 218 220 222 224 226 228 229 233 238 236 235 238 242 239 235 238 243 242 239 240 247 257 266 273 281 288 291 295 302 305 297 291 293 290 287 288 286 285 289 291 288 284 284 285 286 285 283 281 281 282 281 281 280 281 283 284 285 285 285 285 285 284 282 281 280 280 281 281 280 277 276 276 274
217 218 221 224 227 228 228 229 234 237 236 236 240 242 239 238 239 240 239 240 245 251 259 269 275 281 284 286 290 298 299 292 293 297 289 284 289 292 292 292 293 293 292 292 291 290 288 287 287 288 288 287 285 282 281 282 282 283 283 283 284 285 285 284 282 280 282 283 284 283 279 278 277 277
215 216 221 225 226 228 233 237 236 236 237 239 241 241 239 239 239 240 242 246 249 253 262 271 277 279 280 282 289 294 294 293 298 303 298 290 294 301 302 297 293 295 297 295 294 293 291 291 291 291 290 289 286 284 283 283 283 283 283 284 286 286 285 284 281 280 282 284 286 285 283 281 280 279
213 215 219 223 226 231 238 241 237 236 239 241 242 244 244 243 242 242 244 245 247 254 262 269 274 273 274 281 288 289 291 296 297 297 299 303 306 308 306 300 297 299 300 296 293 290 289 290 290 290 289 287 287 286 284 283 284 284 286 288 289 288 286 284 281 281 282 284 286 286 284 282 281 279
212 214 217 220 224 229 233 237 238 240 245 246 243 243 245 246 245 243 243 246 252 259 262 266 269 267 271 282 287 285 287 290 286 288 297 302 302 302 298 294 295 299 299 293 289 287 287 289 289 289 290 290 291 290 289 289 289 290 291 294 295 294 292 290 288 286 287 288 289 290 289 288 286 283
211 212 216 220 225 229 232 239 247 249 253 253 246 243 244 245 244 246 249 255 262 265 264 265 268 270 274 280 283 284 285 281 276 283 291 292 287 283 279 275 282 294 297 292 288 288 292 295 293 291 295 299 299 298 296 294 294 294 295 296 295 294 293 293 292 290 289 290 291 292 292 290 288 286
211 212 216 222 227 231 235 244 254 256 256 254 246 242 243 245 245 249 257 264 271 273 271 269 271 276 278 279 282 284 279 272 276 283 284 282 277 273 275 276 283 293 298 292 287 288 294 299 295 291 298 304 302 299 298 296 296 296 294 292 291 292 293 294 294 292 291 291 291 290 289 287 285 284
212 212 217 223 227 231 237 245 253 256 253 248 242 239 240 242 246 254 264 272 275 277 278 274 273 278 281 279 281 281 274 271 276 278 278 281 284 283 285 287 288 292 295 291 286 284 291 296 292 290 299 305 301 299 300 300 301 300 298 295 294 296 297 295 294 294 293 292 290 289 287 285 283 283
211 210 215 223 228 230 237 243 248 249 246 241 237 236 238 243 251 262 270 276 279 281 283 281 279 283 285 281 278 276 275 275 276 276 280 287 289 290 290 290 290 291 294 295 287 276 284 292 292 294 304 309 304 303 305 306 306 303 300 299 298 298 298 297 295 294 293 292 289 287 285 283 281 281
214 213 216 227 235 236 240 245 246 241 236 233 233 236 243 251 259 266 271 279 284 285 284 283 283 285 287 285 283 282 279 278 281 285 287 288 288 286 285 287 288 289 295 299 290 276 281 293 301 306 315 317 311 308 308 307 306 303 301 301 301 300 299 296 294 294 293 292 288 284 282 281 281 283
213 213 221 234 240 240 241 245 246 239 233 234 239 242 248 255 262 268 275 281 284 281 279 281 283 284 285 282 280 279 278 282 290 291 286 287 287 282 278 280 282 286 292 297 294 284 288 307 317 317 318 316 312 309 309 309 307 306 305 303 302 300 298 295 295 296 296 294 289 284 283 282 284 285
212 219 232 240 240 240 242 246 247 240 233 234 236 238 245 255 262 269 275 276 273 271 273 277 280 282 283 279 275 276 280 287 292 286 282 286 284 276 271 274 278 285 291 294 296 301 309 317 320 320 319 315 309 308 310 311 309 307 307 305 302 300 299 298 298 298 297 295 291 288 287 287 288 288
219 230 239 241 240 240 243 245 246 241 235 232 230 230 238 250 258 263 266 265 264 266 269 274 279 284 286 286 285 285 285 288 290 288 288 290 284 274 271 276 283 291 292 295 304 313 313 314 315 317 317 310 306 308 309 308 306 305 305 303 301 301 301 301 300 298 297 296 293 291 290 291 290 288
226 234 240 242 241 240 240 241 241 239 237 235 232 233 243 254 259 260 260 259 262 267 271 277 284 287 287 287 287 287 288 292 296 300 305 307 298 283 276 280 286 285 287 300 310 310 306 305 307 308 304 293 294 303 303 301 301 302 302 299 299 300 301 300 298 297 296 295 294 293 292 292 291 288
231 239 244 244 240 236 237 238 236 234 235 235 236 241 250 257 259 259 258 260 265 270 274 280 283 283 282 280 281 286 293 297 301 305 312 321 323 313 301 296 294 290 297 311 319 313 304 302 302 301 298 290 286 292 297 298 298 298 299 299 298 299 299 297 295 296 298 298 296 295 293 292 292 290
232 242 246 243 239 235 233 232 229 228 231 235 239 246 253 255 256 258 261 265 269 272 276 278 277 275 272 271 275 286 294 296 296 298 302 306 310 311 309 307 305 303 307 316 320 312 302 298 296 294 290 287 288 290 293 295 296 298 300 299 298 297 296 294 293 296 300 300 299 297 295 293 293 292
234 241 242 239 238 234 228 223 221 223 230 237 243 248 250 250 254 260 264 268 270 272 275 274 269 269 271 274 280 291 299 301 301 302 305 308 310 310 309 309 307 306 308 311 312 308 300 294 294 292 286 284 287 289 288 288 293 298 300 299 299 298 295 292 292 297 301 302 300 299 297 294 292 292
234 237 236 233 231 227 221 218 220 224 229 234 241 246 247 251 259 264 266 266 266 267 268 264 261 263 266 268 271 282 294 297 299 304 309 312 315 315 312 310 308 306 306 307 307 306 302 297 295 294 290 285 280 280 281 283 287 293 297 299 299 298 295 294 295 298 302 302 300 298 295 293 293 292
229 230 226 219 213 210 210 212 217 222 226 231 240 249 253 258 263 263 261 259 257 257 254 251 251 253 252 257 270 282 288 289 296 306 313 315 316 316 313 311 308 307 307 307 307 309 307 301 299 298 295 290 282 275 275 278 284 291 294 295 295 296 296 296 297 299 301 300 299 296 294 292 293 292
219 214 208 204 204 206 208 211 215 221 227 236 246 252 255 258 260 256 250 247 245 245 244 244 246 249 251 263 280 286 289 297 306 315 317 315 316 316 314 311 309 307 309 310 311 311 309 306 305 302 297 293 287 277 276 281 287 292 295 294 294 296 298 298 298 298 299 299 298 296 294 293 293 291
205 197 192 193 196 197 200 208 217 226 237 246 250 251 252 254 252 246 240 240 244 246 245 246 252 256 259 267 281 291 303 312 317 321 320 315 314 316 315 310 306 307 311 313 315 316 314 313 314 309 302 297 290 282 285 292 293 294 297 298 296 296 298 300 300 299 300 300 299 297 296 295 294 291
191 186 180 177 183 193 204 215 225 234 244 252 253 251 249 248 246 243 241 244 247 247 246 252 260 261 259 266 289 308 316 318 320 323 320 312 311 315 313 305 300 304 309 313 319 324 323 320 318 315 310 305 296 288 291 297 297 296 298 301 299 297 298 301 301 300 303 304 301 298 298 295 293 291
185 181 181 186 196 208 219 228 236 241 246 251 253 252 249 245 243 240 237 240 246 250 254 259 260 256 258 285 308 316 318 320 322 322 317 313 315 315 310 302 301 303 304 309 320 327 326 323 321 319 317 313 303 292 290 293 296 299 301 301 300 299 300 302 302 302 306 307 302 299 299 296 294 291
192 187 190 199 211 222 231 239 245 246 245 246 247 247 246 244 241 239 241 249 256 260 259 256 250 252 282 304 312 317 320 322 323 322 321 320 318 314 308 304 305 307 307 312 322 326 324 322 322 322 321 317 307 298 297 292 289 296 302 302 301 301 302 303 304 306 308 307 301 298 298 296 295 294
192 193 201 213 224 232 236 241 247 247 244 245 247 248 248 248 246 243 241 241 234 221 215 228 254 284 302 310 318 326 329 327 327 328 327 320 315 314 313 308 307 313 318 320 322 323 321 320 319 317 317 315 307 308 316 309 294 296 305 307 307 306 304 305 308 309 308 306 301 298 297 297 298 299
187 192 206 221 231 239 245 249 247 239 233 235 241 243 244 246 244 234 217 207 209 232 315 337 336 333 339 345 344 341 340 336 331 326 320 316 316 318 317 315 317 322 322 319 319 320 319 318 316 312 308 307 307 312 319 317 309 302 302 303 306 307 307 308 310 309 306 305 303 298 296 297 299 302
193 199 213 231 251 264 270 271 187 168 156 110 93 96 112 137 157 166 167 158 84 18 13 29 39 31 9 357 348 340 334 329 324 319 316 320 324 322 321 323 325 323 318 316 319 322 321 318 317 313 306 304 314 307 308 313 313 310 304 302 304 308 310 311 311 310 309 308 305 300 298 297 299 302
200 206 218 234 251 223 114 98 93 88 81 79 80 76 85 106 119 119 117 107 81 61 36 17 8 353 341 338 335 328 322 316 316 320 326 329 329 328 327 326 322 318 317 318 321 325 325 321 318 316 313 311 310 303 304 310 311 313 316 314 310 311 316 317 314 312 312 311 309 306 303 299 299 303
196 200 207 204 156 120 110 101 92 84 77 73 70 64 63 75 89 85 74 59 37 15 357 349 348 345 341 335 323 314 313 316 324 332 335 333 331 331 329 323 318 316 317 318 322 326 325 322 321 320 317 309 303 303 302 301 303 309 319 324 320 318 322 322 318 314 314 315 315 313 310 308 307 310
200 212 222 208 153 123 114 109 103 97 86 75 70 67 61 58 55 45 37 30 19 8 359 355 359 3 358 340 326 319 323 333 339 337 336 335 332 329 325 319 316 317 318 319 321 323 323 324 326 324 318 313 313 312 308 303 304 312 321 328 330 329 329 328 322 317 317 320 320 318 316 317 318 319
210 216 213 192 162 136 124 124 122 116 103 76 54 38 46 58 50 26 17 15 12 8 1 349 348 357 350 333 330 335 340 342 339 335 333 330 325 323 323 320 319 322 324 320 319 321 324 327 329 328 325 324 323 321 315 310 313 318 324 329 333 336 337 336 332 326 323 324 324 322 322 320 318 319
196 192 179 170 172 164 133 122 124 114 275 280 292 313 331 338 343 1 17 21 21 15 358 332 311 317 330 335 340 344 341 337 334 331 327 323 321 322 324 323 324 328 327 321 319 322 326 329 331 332 332 331 328 322 317 316 317 320 324 329 333 337 341 342 340 337 334 332 330 328 327 324 318 319
180 176 170 171 189 208 236 286 276 267 271 278 302 325 323 321 336 32 29 17 8 353 340 327 301 296 327 347 344 335 334 334 331 325 322 323 325 325 324 325 329 332 329 325 324 325 327 330 333 334 332 332 330 326 321 321 321 323 327 331 333 337 341 343 343 343 343 344 344 343 343 341 334 327
171 163 162 167 189 223 260 268 252 251 274 289 305 319 321 331 55 56 30 14 358 336 324 325 6 22 357 347 334 331 334 333 328 325 326 329 330 328 326 328 332 333 331 328 326 325 326 329 333 334 332 331 332 332 327 325 326 328 332 334 335 338 340 342 343 343 345 350 354 356 357 356 348 338
164 159 157 158 182 225 253 256 245 251 279 283 264 246 159 118 99 78 52 19 1 352 356 41 64 40 8 347 339 336 333 328 327 331 332 331 329 329 329 332 333 332 331 328 324 322 323 327 333 336 336 333 337 340 336 331 331 333 335 337 339 341 342 342 341 341 342 347 355 0 3 2 0 359